Theta_e
314 314 313 312 310 307 308 307 307 306 307 307 306 307 307 305 305 305 306 309 310 314 315 314 314 309 306 305 305 316 317 318 317 317 314 312 312 312 314 313 313 314 313 312 312 312 312
314 313 311 311 308 307 307 307 306 306 307 306 306 306 307 306 305 305 306 310 307 313 314 314 311 307 306 305 308 316 317 316 314 314 313 312 312 311 313 314 315 314 314 314 314 314 313
313 312 311 310 306 307 307 307 307 307 307 306 306 306 306 306 305 305 306 309 314 314 314 313 309 305 304 306 309 314 315 314 314 315 313 313 313 314 314 314 312 314 316 315 314 313 315
313 312 310 308 307 307 307 307 307 307 307 306 306 307 307 305 305 305 307 308 312 312 312 312 308 305 306 308 310 313 312 312 311 312 312 313 313 313 314 312 313 315 316 318 312 313 313
313 311 310 306 307 307 307 307 307 307 306 306 306 306 306 306 304 306 307 310 311 312 311 308 306 306 308 307 308 312 310 307 309 310 312 313 313 314 314 315 315 314 316 316 316 313 315
313 310 308 306 306 307 307 307 307 306 306 306 306 305 306 306 308 309 309 310 310 308 308 307 306 304 305 306 306 307 308 309 311 312 313 313 314 315 314 315 316 318 316 315 315 315 313
312 310 308 306 306 306 307 307 307 307 306 306 306 305 305 304 308 309 309 308 303 304 306 306 306 306 306 306 307 307 306 310 310 310 312 312 314 314 311 312 313 315 316 316 315 311 313
312 309 308 306 306 306 307 307 307 307 302 305 306 304 306 306 307 307 306 304 305 305 307 306 306 306 307 305 308 308 309 309 310 311 311 311 312 310 310 312 311 312 310 311 310 311 311
312 309 308 306 306 306 307 307 307 306 301 302 304 304 305 306 306 306 305 304 306 306 306 306 307 306 306 306 307 309 308 309 310 311 311 311 310 310 311 311 308 307 309 308 308 309 308
313 309 309 306 306 306 307 307 307 306 301 302 303 304 304 303 305 304 305 305 306 305 302 305 308 307 307 306 308 307 309 309 310 311 308 308 307 308 308 308 307 309 307 308 310 311 311
312 310 308 306 305 305 306 307 307 303 304 303 302 304 304 304 304 304 304 305 305 302 302 304 307 306 305 307 308 307 308 309 311 310 308 307 306 307 308 308 307 309 309 309 310 311 312
310 310 309 307 301 304 305 304 306 304 305 305 304 304 304 305 305 305 306 306 303 299 302 305 306 307 306 305 306 306 305 304 305 304 302 306 304 305 306 306 307 309 310 307 307 314 315
309 310 310 307 299 300 302 303 303 304 305 306 305 305 306 305 304 305 306 301 300 303 302 306 307 307 306 306 307 305 305 304 306 305 302 303 304 302 304 307 308 308 307 310 310 313 313
306 309 308 307 302 299 299 301 301 303 304 305 306 306 305 304 306 306 304 300 304 307 308 305 307 306 307 306 306 304 304 302 303 304 301 304 302 304 304 306 308 308 311 307 314 315 313
306 308 309 307 305 298 299 299 299 303 303 305 305 305 305 304 305 305 301 307 307 307 306 308 305 307 306 304 306 303 302 302 304 305 307 303 303 303 304 304 304 308 311 310 307 302 308
307 306 309 309 306 300 299 299 299 302 303 304 304 304 304 305 305 303 302 309 307 307 307 306 306 305 306 304 304 302 299 303 301 302 302 303 304 302 303 302 302 305 305 308 306 306 311
308 306 307 309 307 303 298 299 299 301 303 304 304 302 305 305 303 300 300 305 307 306 305 305 305 305 303 304 303 302 302 300 301 300 301 302 301 302 302 304 304 303 304 305 307 310 308
308 306 306 308 308 305 299 299 299 300 302 304 301 303 304 303 302 297 300 306 306 305 302 304 304 303 303 302 302 303 302 301 300 300 301 300 300 301 302 302 301 301 301 302 306 307 304
309 306 306 307 309 307 303 298 299 299 301 302 299 299 304 303 299 297 303 304 304 304 303 301 303 301 300 301 303 302 302 301 298 301 303 302 295 293 297 298 298 301 301 301 296 296 309
310 308 305 306 308 308 306 299 299 299 301 302 298 301 299 297 296 301 303 303 304 301 302 302 299 299 300 300 299 301 299 301 299 300 303 299 294 294 297 298 298 301 301 300 299 297 300
312 309 305 306 308 308 307 304 298 299 300 301 294 300 298 300 301 300 301 302 303 303 300 299 301 298 299 300 297 298 297 297 297 298 298 295 292 297 298 297 300 301 302 302 295 300 301
314 311 309 304 306 309 308 306 298 299 300 301 299 300 295 298 299 302 303 303 302 301 300 301 301 300 297 298 297 296 298 297 297 296 297 294 293 290 293 300 300 303 302 302 301 302 303
314 314 311 306 305 308 308 307 303 298 300 300 298 299 298 299 299 301 301 302 302 300 299 299 298 299 298 297 295 295 295 295 297 298 296 295 292 292 295 297 293 293 297 302 301 301 303
314 314 313 310 304 306 308 308 307 298 300 302 301 299 299 301 300 302 303 303 302 300 301 299 296 298 297 295 295 295 295 295 294 296 294 296 293 295 297 291 294 296 301 301 301 301 302
313 314 313 312 307 305 308 308 307 301 299 301 302 300 297 301 299 300 303 303 301 300 300 298 296 295 294 297 299 299 295 295 298 298 296 293 295 294 297 294 294 299 300 304 305 300 301
312 313 313 313 310 304 306 308 307 306 298 300 301 302 298 299 299 300 300 300 301 299 298 297 295 294 296 296 299 299 298 297 298 295 293 294 293 293 295 295 296 295 301 303 301 296 297
312 313 313 313 312 309 304 307 308 307 301 299 301 302 300 298 296 296 298 299 297 297 297 296 295 296 294 297 300 299 299 297 299 298 298 292 291 295 295 296 295 293 302 300 298 296 298
310 312 312 313 313 312 308 306 308 308 306 298 299 301 301 296 296 296 296 296 294 294 298 294 295 294 293 296 297 296 296 295 297 297 297 297 296 296 295 297 296 295 302 301 296 294 300
310 311 312 312 312 312 311 307 307 309 306 300 299 299 301 299 297 299 299 299 298 297 295 291 295 293 294 294 292 292 298 289 295 295 294 296 296 297 297 299 294 298 299 299 294 297 300
Wind_Speed
34 35 33 30 33 36 33 31 29 29 30 28 24 20 15 5 3 6 5 10 10 9 21 15 13 9 5 4 3 6 7 9 9 11 6 3 2 0 2 1 3 4 4 7 10 12 13
33 33 32 33 36 33 34 32 31 31 30 29 21 15 11 4 4 8 8 12 7 10 17 14 11 7 3 5 2 6 7 13 8 8 4 4 3 3 2 4 5 3 5 10 8 14 10
33 31 32 34 35 34 35 34 33 32 33 28 24 12 9 8 9 12 11 10 14 21 18 14 10 6 8 3 3 9 7 5 4 5 3 6 2 1 0 3 3 3 6 10 6 5 4
32 30 32 35 33 34 35 34 34 34 29 26 26 19 15 12 11 12 12 14 17 17 16 11 8 4 4 5 5 7 6 4 2 3 1 1 5 2 2 3 3 4 2 3 3 0 2
30 31 33 35 33 33 35 35 36 34 28 27 22 19 16 14 12 11 21 16 17 15 12 10 4 1 4 5 5 5 4 2 2 2 3 2 2 1 2 4 3 1 4 4 7 7 2
29 31 32 33 33 33 33 34 34 33 28 25 21 18 17 16 18 20 22 20 18 14 8 6 6 4 5 2 2 1 4 3 2 2 2 1 1 1 1 2 3 6 5 5 9 4 10
28 29 32 31 31 32 32 33 33 30 29 25 23 19 18 16 17 20 21 9 4 6 13 5 1 4 2 4 2 4 3 4 1 4 1 0 1 4 8 6 3 9 9 10 7 13 5
26 28 29 29 30 30 30 31 31 29 29 26 21 18 18 17 12 7 8 6 3 0 6 4 2 3 2 3 3 3 2 1 0 3 1 2 5 8 5 5 5 6 8 8 8 5 3
24 26 27 28 28 28 28 29 28 28 28 25 23 19 13 11 9 19 19 12 6 3 5 5 3 3 3 4 2 2 1 1 2 2 1 3 6 6 2 3 3 3 4 3 5 6 2
23 25 25 26 26 27 26 26 25 26 25 23 21 20 20 7 6 9 7 17 8 6 5 9 6 4 2 2 2 2 1 1 1 2 4 3 4 4 6 3 1 6 3 2 5 5 3
21 22 22 25 24 24 25 24 22 25 24 22 19 16 17 22 7 7 17 14 10 4 6 8 7 5 6 4 2 5 3 3 3 3 4 5 5 4 3 3 2 3 7 4 3 2 2
20 20 20 23 24 24 23 24 21 20 23 21 21 20 14 11 15 14 14 14 7 5 3 7 5 6 5 5 4 5 4 6 1 3 2 5 4 1 3 5 2 3 3 3 2 1 1
18 19 18 21 24 23 22 22 22 17 15 16 13 15 16 11 2 7 10 4 5 7 4 9 4 5 4 4 5 7 5 6 4 6 6 6 4 5 1 4 2 7 3 2 3 1 2
17 17 18 19 23 21 21 20 20 18 14 8 5 6 13 11 2 4 3 5 10 4 2 4 3 5 3 5 4 7 4 6 4 4 3 4 6 4 5 1 2 3 1 2 3 2 1
15 15 16 18 20 21 20 20 18 16 17 10 8 4 5 17 3 1 5 7 4 4 3 5 6 3 4 4 2 4 5 4 3 4 3 3 4 4 0 1 1 3 3 3 3 1 2
14 14 14 15 17 19 17 19 21 20 18 9 5 2 6 15 3 2 5 6 2 2 3 2 4 2 3 5 4 5 5 1 5 2 1 3 4 2 3 2 3 4 1 1 2 2 1
11 14 14 14 14 16 16 17 21 22 21 7 2 3 9 5 4 5 4 2 1 1 1 2 2 3 3 3 3 2 4 2 1 5 0 2 2 5 1 3 1 4 3 3 1 1 1
10 12 13 14 14 14 16 17 19 22 23 5 3 3 9 3 4 2 2 0 1 2 3 2 3 1 1 2 2 1 2 3 1 2 2 1 1 4 1 1 2 1 1 1 2 2 2
12 10 12 12 12 13 15 15 17 20 21 7 2 1 5 5 3 2 2 1 1 2 1 1 2 2 1 1 1 0 2 2 3 3 1 1 1 4 6 4 2 2 1 2 3 2 2
13 13 12 11 13 12 13 15 15 16 16 5 3 2 4 4 2 5 2 2 2 2 2 3 4 2 1 1 1 3 2 2 2 2 4 2 2 5 5 5 1 4 3 2 3 2 2
14 13 13 13 11 12 13 13 13 14 12 3 3 1 2 1 0 5 4 1 2 1 1 1 1 2 2 2 2 2 2 4 0 5 2 3 2 2 6 6 2 4 6 4 3 4 4
16 14 15 13 13 12 12 12 12 11 11 3 2 3 2 1 2 2 3 6 5 2 3 1 2 1 2 3 3 3 1 2 3 3 2 2 1 2 5 3 5 6 9 6 6 3 7
17 15 16 15 14 12 13 12 11 9 8 3 1 2 4 1 1 2 5 6 7 5 5 2 3 2 3 5 6 4 4 1 1 1 1 1 3 3 4 3 3 5 6 6 4 4 4
18 17 17 17 15 14 14 13 10 7 3 1 3 3 3 2 2 4 4 5 8 5 2 3 5 4 2 2 2 2 0 3 3 2 2 2 2 2 4 3 3 4 0 3 6 8 8
21 18 19 20 17 16 16 15 13 9 5 3 5 4 3 2 3 4 4 3 2 1 3 4 5 2 2 2 1 3 3 3 3 2 1 1 2 2 1 2 6 2 3 4 4 6 6
21 21 20 21 20 19 19 18 16 13 9 7 6 7 4 3 5 3 3 4 4 3 3 3 1 3 2 2 1 2 3 2 2 3 2 3 3 3 1 0 2 4 3 4 3 5 7
24 21 22 21 23 22 22 21 21 17 15 13 6 11 2 3 3 6 5 5 5 2 2 2 2 2 2 2 1 3 3 4 2 3 4 1 1 4 3 4 7 7 5 5 1 5 5
27 26 24 23 24 25 25 25 24 22 19 17 6 16 6 3 4 8 7 5 3 3 4 4 3 1 2 2 3 3 3 4 2 4 5 6 6 4 2 1 6 8 5 7 6 3 6
30 28 26 25 25 26 28 27 27 26 24 20 8 14 16 3 4 6 12 18 9 8 5 3 2 4 5 3 0 2 2 1 3 4 1 3 7 4 9 6 3 12 8 9 6 6 6
Wind_Direction
0 360 3 6 1 358 359 359 356 353 351 351 347 343 349 350 3 18 33 22 9 102 140 143 145 146 126 70 56 109 136 140 152 174 145 122 156 133 105 178 170 219 259 242 253 266 257
2 10 9 6 3 2 1 0 355 354 351 0 6 1 1 48 59 46 57 22 356 126 130 134 138 137 86 78 0 131 137 144 138 161 148 166 191 193 200 221 211 196 253 276 272 262 246
5 9 8 7 5 3 3 6 2 358 356 8 7 25 61 75 62 70 54 33 74 128 129 136 130 111 64 120 80 126 134 124 158 185 165 215 186 343 325 310 278 266 308 306 264 229 256
8 12 9 9 8 6 7 9 12 3 17 26 34 54 67 74 76 62 54 93 89 110 120 122 116 98 93 42 110 128 128 128 138 165 56 34 207 213 209 273 313 332 229 307 268 281 323
10 12 11 9 10 11 12 14 19 20 27 31 41 55 57 70 60 72 110 94 106 109 108 103 82 72 50 59 83 172 159 68 151 210 230 176 202 193 168 345 328 196 276 295 325 348 22
13 12 13 10 13 16 19 20 21 27 29 36 44 47 50 51 70 96 113 109 106 92 79 76 46 45 15 350 340 137 197 151 114 154 171 197 52 358 304 200 314 307 308 293 305 285 321
14 13 14 12 13 17 22 25 22 28 29 29 38 41 45 41 94 104 117 112 33 14 36 80 232 102 41 338 61 63 140 144 95 55 269 67 24 249 230 231 233 296 277 286 270 278 282
12 12 14 13 13 16 22 25 23 28 40 31 31 48 53 58 104 67 67 64 31 180 66 39 59 63 42 358 65 4 159 142 173 260 291 3 251 256 249 255 286 261 287 283 282 295 278
11 12 14 14 14 15 21 27 30 28 34 38 28 22 37 59 63 65 62 36 9 358 82 8 25 33 321 17 103 322 114 245 243 282 225 187 256 324 262 331 321 298 257 263 287 313 256
7 12 13 13 15 14 20 28 34 35 33 34 36 23 12 360 41 13 40 3 9 356 80 340 350 5 335 339 43 282 268 228 297 290 339 249 301 340 327 242 96 305 320 283 332 339 307
5 11 15 11 13 15 15 25 35 47 37 28 34 34 39 36 19 32 331 346 353 10 63 311 324 311 321 69 304 338 3 11 288 295 64 269 335 349 317 251 155 281 349 302 280 236 347
3 9 12 12 14 13 15 23 31 51 53 38 44 47 43 69 35 13 7 350 345 42 15 336 329 350 14 2 352 322 17 35 328 347 355 257 281 253 265 306 190 327 256 41 53 26 6
1 1 8 11 14 15 16 22 23 30 53 62 47 35 46 47 17 5 342 43 46 74 297 324 334 356 329 334 2 10 14 12 35 12 8 332 329 313 334 344 49 15 49 42 37 304 191
355 357 5 11 9 13 14 19 27 14 5 14 45 37 10 15 307 331 39 54 58 232 259 283 288 322 23 2 16 6 14 12 24 45 353 23 343 6 349 24 304 324 32 133 165 184 245
347 352 357 7 7 9 9 9 19 17 360 341 311 343 0 350 330 180 70 51 162 200 239 322 329 10 333 3 39 53 23 350 310 32 358 3 280 311 61 311 47 330 34 334 110 205 80
335 343 347 356 3 3 6 4 5 5 356 348 316 17 349 358 82 59 71 116 183 249 315 355 19 40 335 328 28 28 15 355 329 40 138 314 307 261 299 66 21 85 324 55 8 51 339
325 331 335 342 354 358 359 3 3 3 356 356 13 53 346 11 79 56 86 74 281 251 21 66 9 310 342 340 18 2 319 284 32 316 75 350 125 294 340 35 289 351 20 18 331 3 176
310 321 328 327 339 349 355 357 2 2 3 11 69 41 350 360 46 33 81 217 262 280 28 72 159 148 223 343 330 348 295 243 337 187 354 336 149 277 15 105 184 121 76 98 119 268 92
301 302 313 316 322 336 348 353 0 2 6 345 80 257 354 72 83 349 281 262 223 12 20 71 126 103 110 17 10 256 258 225 343 9 69 131 27 351 346 354 8 109 210 136 118 17 238
299 296 298 304 308 324 335 348 353 3 7 20 70 19 340 42 133 129 163 271 296 11 58 353 358 76 13 182 201 276 308 241 329 8 46 103 113 158 198 228 311 308 245 170 133 120 185
289 289 287 295 289 307 319 337 347 353 -0 16 37 147 281 257 48 131 127 339 323 336 123 54 118 85 235 230 274 234 254 315 310 359 71 104 219 217 238 230 250 257 274 266 194 196 170
286 281 280 282 285 284 307 319 337 347 355 52 125 132 33 355 55 146 161 195 198 229 178 224 173 208 169 248 237 273 219 218 241 333 79 23 266 99 292 198 215 274 273 253 242 237 268
280 280 273 271 276 271 285 304 323 335 2 91 111 112 110 309 235 159 215 183 204 165 228 216 180 180 219 224 204 218 215 288 256 229 321 48 116 52 270 18 352 328 232 192 238 199 178
279 274 270 265 262 262 262 281 294 309 348 102 149 126 92 266 221 222 203 180 185 208 236 182 176 194 207 103 98 78 112 241 223 239 196 148 98 133 267 357 15 230 109 173 218 259 229
281 274 269 264 255 251 248 256 273 276 260 231 175 152 135 240 205 282 219 240 87 40 238 228 222 209 102 87 47 355 341 355 224 192 194 186 121 11 37 227 289 148 192 184 191 281 215
285 276 270 265 257 248 246 242 246 254 245 229 208 186 140 125 236 134 171 176 203 212 300 247 51 134 89 98 84 135 253 188 321 346 27 99 83 119 67 30 234 220 185 172 141 288 201
282 277 269 266 258 248 243 242 236 242 234 217 222 199 141 172 228 150 187 183 153 138 182 276 190 163 61 140 160 185 247 176 239 214 197 85 27 175 191 250 281 232 170 149 131 236 176
279 278 273 265 262 253 244 239 237 232 234 218 224 208 196 203 265 184 182 158 137 167 168 178 81 240 81 182 154 213 201 224 172 216 194 190 161 202 121 167 282 160 99 177 209 188 180
276 273 273 272 269 261 248 239 235 234 226 220 220 211 209 200 250 235 230 230 215 195 145 195 194 163 195 113 209 105 208 98 184 264 186 259 199 188 192 220 229 192 208 209 177 189 200